User: anonymous   Login
Location: Unspecified
(0.0000°N, 0.0000°E)
Time: 02:55:32
(UTC+00:00)
Language:

TBA - TO BE ASSIGNED - Orbit

View from above orbital plane
View from above orbital plane
View from above satellite
View from above satellite

Ground track
Ground track

The orbit is defined by the following mean orbital elements,

1 68680U          26145.43608454 +.00000000 +00000-0 +35855-3 0 00002
2 68680  97.2852  17.0685 0002640  99.9094 260.2447 15.33453557    08
Epoch (UTC): 25 May 2026 10:27:57
Eccentricity: 0.0002640
inclination: 97.2852°
perigee height: 464 km
apogee height: 467 km
right ascension of ascending node: 17.0685°
argument of perigee: 99.9094°
revolutions per day: 15.33453557
mean anomaly at epoch: 260.2447°

The dashed part of the orbit path shows where the satellite is in the earth's shadow,  

DLR